Theta_e
297 300 302 306 307 305 305 305 305 305 307 308 306 306 308 300 295 296 307 311 309 312 315 318 321 323 322 323 325 327 328 329 330 329 329 329 330 331 331 330 331 333 333 333 334 335 336 338 339 340 341 342 344 345 346 346 347 348 350 349 348 350 350 350 349 349 348 347 347 347 347 347 346 346 348 350 353 354 355 355 354 354 354 354 354 354 355
298 299 300 303 306 306 304 302 303 305 306 306 308 308 310 311 308 310 311 312 311 314 316 319 322 325 325 326 327 328 327 327 328 329 329 329 330 331 332 331 331 333 333 333 333 335 336 337 338 339 340 340 342 343 344 346 347 348 348 348 347 348 348 349 348 347 345 346 344 344 344 344 344 346 347 348 349 350 352 353 354 355 355 354 353 353 353
296 298 303 305 306 305 302 302 302 304 306 306 307 308 309 311 309 310 311 311 310 317 320 321 324 326 327 327 326 326 327 328 328 328 328 329 331 332 332 331 332 333 334 334 334 335 336 337 338 339 340 341 342 343 344 345 345 347 347 346 347 347 348 347 347 345 345 345 345 344 345 345 345 346 346 346 347 347 348 349 351 353 354 352 351 352 352
293 297 301 302 304 304 302 302 301 302 303 302 306 306 308 307 307 308 307 306 308 315 320 322 322 323 322 322 324 325 326 327 327 327 327 329 329 330 331 331 331 333 333 334 334 335 335 337 338 339 339 340 341 342 343 344 344 345 345 345 345 346 346 346 346 344 344 344 344 343 343 343 344 344 344 344 345 346 348 348 349 350 350 351 351 351 351
289 294 298 300 298 296 294 297 301 302 305 307 309 310 311 310 310 305 302 304 311 315 320 318 319 320 321 321 322 325 327 327 328 328 328 329 329 330 330 331 331 332 333 334 334 335 337 337 338 339 340 340 340 341 342 342 343 342 342 342 342 342 345 345 345 344 344 343 342 342 342 342 343 343 342 342 342 343 346 350 351 348 348 348 348 350 349
286 290 294 297 291 286 287 302 308 306 306 306 305 305 308 310 311 307 308 311 315 318 319 317 317 318 319 320 323 326 327 327 327 328 329 329 330 331 331 332 332 332 333 334 335 336 336 338 340 341 342 341 341 342 343 343 342 341 340 341 342 342 343 345 344 344 344 343 341 341 342 342 342 342 342 342 343 345 348 347 346 345 346 346 346 347 348
288 290 293 290 285 286 297 305 311 314 312 311 308 308 310 311 311 311 312 313 315 319 320 319 319 320 321 322 322 323 326 328 328 328 329 329 329 329 330 331 332 333 334 334 335 336 338 339 341 341 340 341 341 341 341 341 341 340 340 340 340 341 341 343 343 343 342 342 341 342 342 341 341 342 343 342 343 345 345 345 345 344 344 345 347 349 349
288 287 285 282 282 292 300 303 311 315 314 311 307 303 306 309 310 312 312 314 317 319 318 320 322 321 322 322 322 323 325 327 328 328 328 330 330 330 331 332 333 334 335 335 336 337 340 340 340 340 340 341 341 340 340 339 339 339 339 338 338 339 339 340 342 341 341 341 342 340 340 340 341 341 341 341 341 345 346 344 343 344 345 345 346 345 344
286 285 282 288 293 295 299 302 304 306 304 303 302 296 300 306 309 310 311 315 318 319 319 320 320 321 320 318 318 323 324 325 328 329 329 331 332 333 333 334 333 334 335 335 336 336 337 338 338 339 339 340 339 339 338 338 337 337 337 336 336 337 337 338 341 342 342 341 341 341 341 340 341 342 342 342 343 347 343 343 343 344 344 345 346 346 345
288 285 284 283 285 285 290 298 304 308 310 309 308 303 299 306 309 311 314 315 317 317 317 316 316 317 313 310 313 320 324 325 326 328 328 329 329 330 332 332 333 333 333 334 334 334 334 334 335 337 338 338 337 336 336 336 335 334 335 334 336 337 336 337 338 341 342 341 341 341 341 341 341 340 341 341 341 346 344 343 342 343 344 343 341 342 340
286 284 281 282 283 286 294 299 303 307 310 311 305 298 293 303 310 313 315 315 315 313 313 312 309 308 306 308 313 320 323 323 325 325 326 327 327 328 329 329 329 330 331 331 330 330 330 330 331 334 334 335 335 334 334 334 334 333 333 334 335 335 336 337 338 338 339 340 339 338 339 340 342 342 342 341 343 345 344 344 343 343 345 341 339 336 336
289 283 284 285 286 290 300 301 303 308 312 308 300 289 289 301 311 312 313 313 312 310 309 310 309 307 306 309 314 322 323 323 324 324 324 324 325 326 327 328 328 328 329 328 327 326 326 326 329 330 332 333 333 333 333 334 333 332 333 334 336 337 338 338 339 339 340 340 339 338 337 338 339 340 341 340 340 342 344 344 343 341 344 340 336 331 331
292 293 284 286 290 298 302 304 307 308 310 302 290 285 295 305 311 314 312 311 310 309 309 308 309 311 309 314 319 322 322 321 321 323 324 325 326 326 326 327 329 326 326 326 325 325 325 326 328 329 329 329 328 329 329 329 330 332 333 335 335 335 336 337 338 338 339 339 337 337 337 336 337 337 337 337 337 337 338 341 341 340 339 335 331 329 329
288 284 289 287 287 295 302 303 307 310 303 291 290 299 306 310 311 314 313 312 311 310 310 311 314 315 317 321 320 319 319 317 317 320 322 323 324 326 328 329 327 324 324 324 325 325 326 326 326 327 327 326 326 325 324 324 327 331 333 333 334 334 334 334 335 336 337 336 336 335 335 335 333 333 335 335 335 334 334 336 336 331 330 330 328 327 328
288 283 284 284 283 297 306 307 306 308 298 296 300 306 314 314 314 314 313 313 313 314 313 314 315 316 317 317 317 318 317 317 317 318 319 320 320 321 322 322 325 323 320 321 322 323 325 326 326 325 324 324 324 324 323 324 329 331 332 333 333 332 332 333 335 334 333 334 334 334 333 333 332 331 332 332 332 332 331 330 329 327 327 327 327 325 324
285 285 285 284 290 298 304 304 298 301 304 308 308 311 310 313 313 313 313 313 314 316 315 314 314 314 314 314 314 314 314 315 315 315 317 318 319 320 321 322 323 323 320 320 320 321 322 323 324 325 323 323 324 323 322 326 328 330 330 330 331 331 331 329 329 328 327 325 324 325 328 329 328 328 329 330 331 330 329 328 327 326 326 326 325 323 321
291 288 287 294 295 300 305 305 304 307 313 314 313 314 313 313 313 313 315 314 315 316 315 314 314 314 314 313 313 312 312 313 313 313 315 317 318 319 319 320 322 321 319 319 319 319 320 321 322 322 323 324 324 322 323 328 327 327 328 330 328 327 325 326 325 322 321 319 319 319 320 322 325 326 326 327 326 327 328 327 327 325 326 326 325 323 321
299 299 299 303 306 307 310 313 312 313 316 317 316 316 315 315 315 316 316 315 316 315 315 315 314 314 313 311 311 312 312 312 313 315 315 316 317 318 318 318 320 318 318 319 319 319 319 321 320 322 320 321 321 321 324 327 328 328 328 328 327 324 323 322 320 320 317 316 316 316 317 319 321 322 324 327 326 325 326 325 325 325 326 327 325 320 318
292 292 299 305 306 306 311 313 315 315 316 316 316 315 315 316 316 316 316 316 316 315 315 316 314 314 314 312 312 311 310 311 312 313 313 314 315 317 317 319 320 317 318 317 318 318 317 318 319 320 320 321 322 324 326 326 327 326 327 327 327 323 320 320 320 319 317 315 314 314 314 315 316 318 319 320 323 325 324 326 327 327 326 326 324 319 316
294 294 299 303 305 306 308 308 312 314 316 318 318 317 318 317 317 317 316 317 315 315 315 316 316 315 314 312 311 311 310 311 311 312 313 313 314 314 315 318 318 316 316 316 317 317 317 316 318 319 319 319 320 320 322 325 326 326 328 325 322 321 322 324 325 323 322 323 315 312 311 311 311 312 313 315 316 315 314 314 322 325 326 326 322 318 317
298 300 301 303 305 307 308 310 312 313 316 317 317 317 318 318 317 317 317 317 316 316 316 317 317 316 315 315 313 312 312 312 312 312 312 313 313 314 316 318 319 315 317 317 317 317 316 316 317 318 318 319 319 319 320 322 325 326 327 328 326 324 325 326 324 322 316 314 312 311 310 309 307 306 307 309 313 313 312 311 313 317 321 320 318 316 315
295 297 300 303 298 298 304 309 314 315 316 317 316 317 317 317 317 317 317 317 318 318 317 318 318 317 316 315 314 314 313 313 313 313 313 313 314 315 316 317 317 318 319 317 317 317 316 317 318 318 317 318 318 319 319 320 324 326 326 323 321 320 321 320 319 318 315 314 313 312 310 310 309 308 306 301 303 310 311 310 303 300 308 315 315 314 311
293 299 302 304 298 300 308 312 313 313 315 316 315 315 315 316 317 318 318 317 317 317 317 318 318 316 316 316 316 315 314 313 313 313 313 314 314 315 316 315 315 317 318 320 318 318 317 319 318 319 318 317 318 319 319 319 320 321 322 322 321 320 321 319 319 316 313 311 311 311 311 311 312 312 310 309 297 297 304 303 298 294 293 294 299 306 316
300 301 305 304 303 306 308 309 312 312 312 314 313 312 313 315 316 317 317 318 317 316 317 317 318 318 317 316 316 315 314 314 314 314 313 314 315 316 315 315 317 317 318 318 318 318 317 318 316 317 318 317 317 319 319 318 319 319 320 321 319 320 321 322 321 317 314 315 314 312 311 311 311 311 310 309 309 300 296 298 298 294 293 293 293 294 295
303 304 306 305 305 308 310 311 311 311 313 314 313 312 313 314 315 317 317 316 317 318 317 317 317 318 317 316 316 317 317 318 319 320 322 322 322 319 318 318 317 316 316 315 315 315 316 317 319 319 317 318 317 319 319 318 318 319 319 320 319 321 325 323 324 322 318 317 315 314 313 313 312 311 309 309 308 309 309 299 295 294 294 294 294 294 295
306 306 308 307 308 309 309 310 310 310 311 313 313 314 318 320 317 316 315 315 315 317 317 318 317 317 319 319 319 320 320 321 323 321 318 318 319 319 319 319 319 320 317 316 315 315 316 319 318 317 319 318 317 318 317 318 317 317 318 318 319 322 322 322 321 322 321 319 316 314 315 314 313 313 314 311 309 311 310 311 312 306 300 296 295 299 296
308 310 310 309 308 307 310 312 311 310 310 311 313 314 316 318 319 314 313 314 314 316 317 318 318 319 320 321 323 321 319 320 320 318 318 319 319 318 317 319 321 322 321 318 317 321 325 324 320 318 317 316 316 319 316 315 316 316 316 317 316 327 327 325 318 319 318 319 318 316 316 316 319 319 317 315 316 314 313 313 312 311 312 312 303 295 302
309 310 312 307 305 308 310 308 308 309 311 313 313 312 311 313 313 312 311 311 311 311 312 314 315 314 313 312 312 312 313 313 313 314 315 316 317 317 317 317 318 319 321 321 318 320 323 319 318 317 317 316 316 317 316 314 316 315 315 314 316 316 320 324 319 316 317 317 317 319 319 318 320 321 321 319 319 317 316 317 314 313 314 311 312 308 300
308 309 307 308 310 310 308 307 309 310 310 310 312 311 312 311 310 310 309 309 310 311 311 311 314 313 312 310 311 310 310 310 310 310 310 311 313 314 315 315 314 316 317 318 316 317 317 317 317 317 317 318 318 318 317 314 314 316 319 315 315 316 318 317 316 317 315 315 314 315 320 321 320 322 324 322 321 319 318 318 316 315 311 312 311 312 312
307 307 308 308 309 309 308 308 307 308 309 309 310 309 310 310 308 306 307 307 309 309 308 309 310 310 310 310 309 310 310 309 309 308 309 310 310 311 313 313 314 317 318 317 316 316 316 315 315 316 317 318 319 319 318 315 314 313 314 314 314 315 316 316 316 316 315 315 317 322 324 321 318 319 325 323 322 320 318 317 317 315 312 313 314 310 310
306 307 308 308 308 308 309 306 305 307 308 308 308 307 306 308 307 305 305 305 307 307 307 309 309 308 309 308 307 307 308 307 306 307 308 309 311 311 312 314 315 315 315 315 313 313 314 315 315 316 316 317 318 318 318 317 315 315 313 313 313 317 319 320 319 315 314 320 320 321 319 320 318 322 321 322 323 320 318 319 317 315 315 314 310 311 309
306 306 307 307 307 306 304 303 304 305 306 306 306 306 305 306 306 304 304 306 306 306 306 306 307 307 307 307 308 307 306 305 305 306 305 307 308 309 309 312 317 317 312 311 313 313 314 314 315 316 315 316 317 317 317 318 317 316 314 319 319 315 316 321 322 321 320 322 321 320 321 318 316 318 320 323 323 320 318 317 314 314 314 312 310 308 309
306 304 303 303 304 304 303 302 303 303 304 306 307 306 305 306 306 306 305 306 305 305 305 305 305 305 304 304 305 305 304 304 304 304 304 305 306 306 308 310 307 307 308 309 311 312 312 314 315 313 313 314 315 317 317 316 316 317 316 315 315 316 321 321 321 320 322 323 322 321 319 323 320 321 319 320 321 320 318 317 315 316 314 311 307 306 306
308 308 308 307 307 306 304 302 302 302 302 302 302 303 304 304 305 305 305 306 305 305 305 304 304 304 303 303 303 303 304 305 305 305 303 303 304 305 305 307 307 307 309 309 308 309 309 311 311 312 311 311 313 315 315 315 315 316 316 315 315 314 315 318 320 321 320 321 321 322 322 322 320 319 321 321 320 319 318 317 317 315 311 308 306 307 304
311 310 311 310 309 309 308 305 303 303 303 302 302 303 304 304 304 305 307 306 305 304 304 304 303 303 303 303 303 303 303 303 303 304 303 304 305 304 304 305 305 307 308 310 309 311 311 310 312 313 312 312 312 313 314 315 315 315 315 314 317 316 315 317 318 318 319 319 322 318 317 317 318 320 321 320 318 318 319 317 316 313 309 307 308 309 308
309 308 308 307 307 307 305 304 305 305 304 304 304 303 303 304 306 307 306 303 303 303 303 303 303 303 303 303 303 303 302 302 302 302 303 304 304 303 305 306 304 303 304 305 312 311 310 310 322 321 317 315 315 313 314 318 318 315 317 318 318 319 319 319 318 318 319 318 318 319 318 318 318 319 321 318 318 318 317 317 315 312 308 308 309 309 308
310 309 308 307 306 305 304 305 305 305 304 304 304 305 305 305 304 304 304 302 302 302 302 303 303 302 302 302 302 302 302 302 304 303 303 302 303 304 304 304 305 306 305 306 310 308 309 311 319 319 314 310 311 311 314 320 319 317 316 315 316 317 317 316 316 315 314 316 317 317 317 317 317 318 320 316 316 316 316 315 314 310 308 309 310 309 308
308 309 308 307 305 304 304 305 306 306 306 306 306 307 305 303 303 303 303 303 303 302 303 303 302 302 303 303 302 302 302 301 302 301 302 303 303 304 304 305 305 305 306 307 308 307 308 314 318 313 309 310 310 310 312 319 320 317 314 314 315 316 316 317 316 316 315 314 315 315 315 315 315 315 316 314 314 315 314 314 312 309 309 310 309 308 308
306 306 306 306 306 305 305 305 306 306 306 304 303 303 305 304 304 303 302 302 303 304 303 302 301 302 302 302 302 302 302 301 303 302 303 304 306 304 305 305 304 305 308 310 310 307 310 315 313 309 310 309 309 309 311 316 318 315 313 313 314 314 315 316 316 316 316 315 315 314 314 313 314 314 312 311 312 314 315 312 310 310 309 308 307 307 307
306 306 305 305 304 305 305 304 304 304 305 305 304 303 304 304 302 302 302 302 303 306 302 301 302 303 302 302 301 301 302 301 302 302 303 302 303 303 303 303 303 303 307 315 311 310 314 314 310 308 308 308 308 309 311 314 316 314 312 311 312 313 314 314 314 314 314 314 314 315 315 314 314 312 311 310 311 312 312 312 311 310 308 307 306 306 307
305 305 305 305 305 305 304 304 303 304 304 304 304 304 303 302 302 302 302 302 301 301 302 302 303 303 302 302 302 302 302 305 302 301 301 301 301 302 303 302 304 305 307 312 313 313 312 310 310 308 307 308 308 313 314 315 315 313 312 312 313 313 313 313 313 313 313 312 314 314 313 312 312 312 311 310 310 311 311 310 308 308 306 305 305 304 304
304 305 305 305 304 304 304 304 303 302 302 303 304 303 302 303 303 302 302 302 301 302 302 303 305 302 300 300 302 302 301 300 300 300 299 303 302 301 302 302 305 305 313 313 309 307 306 306 307 309 308 309 311 313 314 313 310 310 310 311 313 313 313 313 313 313 313 313 311 311 311 310 309 309 309 309 308 308 308 307 306 305 305 304 304 303 304
305 305 304 304 303 303 303 303 303 302 302 302 302 301 302 302 302 302 302 302 303 302 303 304 308 306 303 299 300 300 300 299 299 299 300 301 303 304 305 305 306 307 312 311 308 305 305 305 305 305 311 311 311 311 311 308 308 309 310 310 312 312 312 313 312 311 310 310 309 310 309 308 307 306 307 306 305 305 304 304 304 303 304 303 303 302 302
305 305 304 304 303 304 303 303 302 302 301 300 301 301 302 302 303 303 303 303 302 302 301 300 300 300 301 299 300 301 300 297 299 298 299 301 302 303 304 305 307 309 311 309 307 306 305 306 307 309 309 309 309 309 308 305 306 307 308 309 309 309 308 307 306 307 306 306 305 306 307 308 307 306 305 304 303 302 303 301 300 301 301 301 301 301 300
305 304 304 304 303 303 302 302 302 302 301 301 301 301 302 302 302 303 304 303 303 303 303 301 301 301 299 299 299 299 300 301 302 301 299 299 299 301 303 309 308 308 309 309 306 305 305 307 309 308 308 308 307 308 303 304 306 308 307 307 307 307 306 305 305 305 305 304 304 304 304 303 303 303 302 303 302 301 300 301 300 301 301 300 300 299 299
304 304 304 307 303 302 302 302 302 302 301 301 301 303 303 302 302 302 303 303 303 303 301 301 301 300 298 299 301 301 301 302 302 302 303 300 299 299 303 308 308 308 308 307 306 305 305 308 308 307 307 307 307 302 301 304 304 304 307 307 307 307 306 305 305 305 304 304 303 303 302 302 302 301 300 299 300 301 302 301 300 299 299 299 298 299 298
304 303 303 303 302 302 302 302 302 302 301 301 301 301 302 301 302 302 302 302 302 300 300 300 301 300 298 300 301 301 300 299 301 301 302 302 305 307 307 307 308 308 308 306 305 306 306 306 307 307 307 307 305 299 299 300 301 302 305 306 306 306 306 305 305 304 304 304 305 305 305 304 303 302 303 302 302 301 301 300 299 300 300 301 301 301 300
304 303 302 302 301 301 302 302 302 300 301 301 301 302 302 301 301 300 300 301 301 300 301 300 300 299 299 299 299 299 300 301 299 297 296 299 299 299 300 300 306 306 305 306 305 306 308 306 306 307 306 305 300 297 299 301 303 302 303 304 303 302 302 303 303 304 305 305 303 301 301 301 301 301 301 300 301 301 300 300 300 300 301 300 300 299 299
303 302 302 302 302 302 302 301 301 302 300 301 303 301 301 300 300 300 300 300 300 300 300 300 300 300 302 303 303 301 301 302 299 297 298 299 299 300 302 306 307 306 305 303 301 301 306 305 305 306 305 303 299 299 299 301 304 305 304 303 303 302 301 300 300 301 301 301 301 302 301 300 300 300 300 300 300 301 301 300 300 300 300 299 299 299 299
302 302 301 301 301 301 301 301 301 300 300 302 301 301 301 301 299 299 301 300 300 302 299 299 299 299 297 297 298 300 301 302 301 301 301 299 298 298 303 303 305 304 308 301 302 302 302 304 304 306 305 301 301 302 301 302 302 304 303 304 303 302 303 302 302 302 301 301 300 300 299 298 298 300 301 299 299 300 300 299 299 300 301 300 299 299 299
302 302 302 303 303 303 302 302 301 301 301 302 301 302 303 301 301 302 301 301 301 302 299 298 299 298 297 298 297 299 300 300 304 306 302 301 303 305 304 303 304 307 305 304 301 297 295 296 300 304 303 303 301 303 301 301 302 303 302 302 302 303 302 302 302 301 300 301 300 300 299 299 300 299 299 300 300 300 300 300 300 301 301 300 300 299 299
303 303 302 302 302 301 301 301 302 302 302 303 302 303 302 302 302 302 301 306 301 301 300 299 298 298 296 297 301 299 298 301 304 304 306 304 303 300 304 306 302 303 299 298 296 294 296 300 304 304 304 302 302 303 306 304 303 303 303 304 303 303 304 303 303 302 302 302 300 300 300 299 299 300 299 300 300 300 300 300 300 300 300 299 299 299 299
Wind_Speed
0 1 1 3 2 2 3 2 1 4 3 10 8 3 3 2 2 3 1 1 2 4 6 7 7 6 7 7 7 6 5 6 6 6 7 8 7 6 6 4 2 4 7 8 6 2 3 4 3 2 5 2 4 7 9 10 9 9 9 10 9 9 8 9 9 8 7 6 5 5 4 4 4 4 3 2 3 3 4 5 4 5 6 6 5 6 5
1 2 4 3 0 2 2 4 5 2 1 6 5 2 4 3 3 2 1 2 2 3 6 7 6 5 5 3 2 5 7 6 5 6 7 7 6 6 5 4 3 3 6 6 6 6 2 2 2 5 6 5 6 8 10 10 10 9 9 9 9 9 10 9 8 8 9 8 8 8 7 6 5 4 2 2 1 3 4 5 6 5 5 5 6 6 6
1 3 4 2 1 1 4 3 3 1 1 4 4 4 4 3 2 3 2 3 1 1 4 4 5 4 1 4 8 5 3 5 6 5 6 6 5 5 6 3 2 4 6 7 7 5 6 8 9 9 8 7 8 6 4 4 6 8 9 10 10 10 10 8 7 7 8 8 8 8 8 7 7 7 6 4 3 2 0 4 5 5 5 6 6 6 7
1 2 0 0 2 2 4 1 2 3 2 1 1 2 2 1 2 5 6 4 1 3 6 4 5 4 8 9 7 6 6 6 5 5 6 7 7 7 4 4 3 3 5 5 4 4 4 6 8 8 7 5 4 7 7 8 7 2 2 1 1 3 5 6 7 7 7 7 6 6 5 5 5 5 6 6 5 4 2 3 4 3 4 5 5 5 4
2 2 1 1 3 2 4 2 1 2 1 1 2 2 1 0 1 2 2 0 3 4 5 4 6 7 7 7 6 5 4 5 5 6 6 7 6 6 4 3 4 3 2 1 2 4 5 8 8 8 8 9 10 9 7 6 7 5 3 4 6 3 2 6 7 6 6 6 5 5 5 6 7 6 6 5 6 6 5 3 1 1 2 2 2 2 4
3 2 3 1 2 1 4 1 1 4 2 4 3 3 3 2 2 3 1 3 5 5 2 3 4 5 5 4 6 6 5 4 5 7 7 6 6 5 4 3 5 4 2 2 3 3 3 5 8 8 8 8 7 6 6 7 8 8 8 7 8 7 6 6 7 8 8 7 7 6 6 6 5 5 5 5 3 3 5 5 3 2 1 3 3 2 2
1 2 3 2 2 7 3 3 2 1 2 3 2 2 3 3 2 1 3 3 5 0 1 1 3 3 5 8 11 11 11 7 6 7 7 7 6 5 5 5 5 5 3 1 1 1 1 3 5 6 6 5 6 6 6 7 8 8 7 6 6 6 5 4 6 7 8 8 8 7 5 5 4 3 1 1 2 3 4 5 5 4 4 4 4 4 4
2 3 2 1 4 4 5 7 2 2 3 2 1 3 5 5 5 4 3 3 4 2 0 2 2 2 4 6 10 11 10 9 6 6 6 6 5 6 5 5 6 6 6 2 1 2 2 3 3 3 4 5 6 6 7 8 8 7 7 6 5 4 3 3 5 6 7 7 6 6 5 4 3 2 0 1 2 1 2 3 3 4 3 2 1 3 3
2 1 4 4 3 4 1 0 1 3 1 1 1 3 4 5 5 6 3 2 2 3 0 3 3 5 5 5 8 10 10 9 7 7 8 6 7 6 6 6 7 7 7 8 7 6 6 6 5 4 3 5 8 7 8 7 8 8 8 7 6 4 4 2 1 3 5 6 5 5 3 2 3 3 4 2 2 2 2 2 2 2 1 3 3 2 4
4 5 1 2 3 1 5 4 3 1 1 1 3 1 5 2 3 4 5 3 2 1 2 3 5 4 4 6 5 8 8 8 8 9 10 10 9 9 8 8 9 9 9 10 10 9 9 8 7 5 4 5 7 9 9 8 9 8 9 8 6 6 4 3 4 4 3 5 3 3 4 5 5 4 3 4 5 1 1 2 2 2 3 4 4 5 6
3 3 3 2 3 4 4 4 2 1 1 5 4 3 6 3 3 5 5 3 2 1 1 4 3 2 3 1 3 5 6 7 8 9 8 9 9 10 9 8 9 9 9 10 10 11 12 11 10 9 9 7 6 7 7 7 7 7 6 6 6 5 4 3 4 5 5 2 2 3 2 3 3 3 3 3 2 2 2 2 3 2 4 4 4 7 7
1 5 3 2 4 1 1 4 3 1 0 5 3 2 3 1 2 3 4 5 5 2 1 1 5 3 6 3 0 2 3 5 6 7 8 9 9 9 9 9 8 8 8 11 12 12 11 10 9 10 8 9 9 8 7 8 8 7 7 6 6 6 6 6 6 6 6 5 4 4 4 4 4 4 3 3 3 3 4 5 5 4 4 4 6 6 6
1 3 1 2 3 3 4 2 3 2 2 3 2 3 3 1 2 3 2 3 3 4 1 1 1 2 2 5 2 2 4 7 8 6 6 7 7 8 7 7 7 9 9 10 10 9 8 9 9 9 8 9 11 10 10 9 8 6 6 7 7 7 7 7 7 7 7 6 6 5 5 5 4 4 2 2 2 3 4 4 4 3 2 4 7 7 5
3 3 2 4 3 5 1 2 2 2 1 1 3 5 1 6 2 1 5 4 2 3 2 2 4 3 3 4 3 4 5 6 4 5 5 7 7 7 7 9 8 7 8 10 10 11 9 9 9 9 10 11 10 11 11 11 9 5 5 7 7 8 8 8 8 7 7 7 7 6 6 5 5 5 3 3 2 2 1 1 3 4 5 6 7 7 5
2 3 2 2 0 1 2 0 2 1 1 5 4 1 2 1 5 5 3 3 2 4 4 1 3 4 4 4 4 3 5 6 5 5 6 6 7 7 7 8 7 8 8 9 9 9 8 9 8 8 11 11 10 10 11 9 6 6 7 7 8 7 8 7 7 8 7 9 8 6 5 5 5 5 4 4 4 4 5 6 6 7 7 7 7 7 5
2 2 2 2 2 1 2 3 3 3 3 0 4 4 2 1 4 4 4 3 2 3 5 5 4 3 5 3 5 6 5 4 4 6 6 5 6 7 6 6 7 8 8 7 8 8 7 7 7 8 8 10 10 11 10 6 6 7 7 8 7 8 8 7 7 7 7 7 6 5 6 6 5 4 4 4 5 5 7 7 7 6 5 4 5 6 6
2 2 3 2 4 4 2 4 2 2 2 1 2 3 3 4 3 2 6 6 4 4 6 6 5 3 1 3 4 6 4 5 4 5 5 5 5 5 6 6 6 7 7 8 7 8 7 8 7 6 6 7 8 7 4 6 8 6 6 6 7 7 7 6 6 5 7 7 6 6 6 5 6 5 6 6 6 6 6 6 6 6 5 4 5 5 6
2 1 3 2 1 1 1 1 2 1 0 2 2 3 6 4 4 4 7 6 6 5 3 7 3 3 2 6 5 6 5 5 4 4 5 5 5 5 6 6 6 7 8 7 8 8 8 7 7 6 6 6 7 3 4 3 2 3 4 5 6 5 5 5 5 5 7 7 8 8 7 6 5 5 5 5 5 5 5 6 6 5 4 4 5 5 5
4 1 1 1 1 2 1 1 1 2 2 2 1 3 4 5 6 5 3 6 5 4 3 6 6 4 3 7 4 5 5 5 5 5 5 3 3 5 6 4 5 6 7 7 7 7 8 6 6 7 7 6 4 3 4 4 3 4 3 4 4 4 5 5 5 6 8 5 5 6 6 5 6 5 5 5 5 5 4 5 5 5 5 4 3 3 3
1 0 2 1 2 1 2 2 1 3 3 4 5 3 4 6 6 6 5 5 5 4 5 4 7 5 3 7 5 4 4 4 4 4 4 5 5 5 4 4 5 6 7 7 6 7 6 5 5 6 7 6 6 5 5 5 4 5 4 3 4 4 5 5 5 5 6 8 7 6 6 6 6 6 6 5 5 5 4 3 3 4 4 4 3 3 3
1 1 1 1 2 2 2 1 0 1 3 5 4 4 6 7 9 6 5 3 2 3 5 4 6 7 4 3 5 6 4 4 3 3 4 4 4 4 5 5 5 6 4 6 5 6 5 5 5 6 6 5 5 6 5 4 3 5 5 4 4 5 4 5 5 5 5 5 5 6 6 7 7 6 4 4 4 4 4 2 2 2 4 4 3 3 3
1 5 5 6 4 2 2 2 4 3 1 5 6 5 6 7 8 6 7 5 4 5 3 4 6 7 5 3 5 6 3 3 3 3 4 4 5 5 4 5 6 6 5 5 5 5 4 5 5 5 6 5 5 5 4 4 3 5 3 4 4 4 3 4 4 4 4 5 5 5 5 5 5 6 8 8 6 4 4 8 9 7 6 4 2 2 3
3 7 7 6 2 3 4 6 4 3 2 4 7 5 6 4 3 6 9 8 6 5 5 2 6 6 6 5 5 7 5 3 3 3 3 4 4 5 5 6 6 6 5 4 4 5 4 4 5 4 5 6 5 6 6 5 5 5 4 4 4 3 4 4 4 4 4 4 4 4 4 4 5 6 5 7 9 11 8 7 8 10 11 10 9 7 4
2 3 9 8 3 5 3 3 4 3 2 5 7 3 3 4 4 4 6 7 8 5 5 6 4 7 7 5 7 8 5 4 5 5 5 5 4 4 5 5 4 4 4 4 4 2 2 3 4 4 4 5 5 5 5 5 5 5 5 4 4 4 4 4 5 5 4 4 4 4 4 4 4 5 5 6 6 8 9 9 9 9 10 10 9 9 9
1 1 6 4 2 4 4 5 4 3 3 5 8 6 6 6 3 5 8 6 4 8 8 6 6 5 8 6 7 7 6 5 6 7 7 6 7 7 5 6 5 4 3 4 4 4 4 3 3 4 3 3 4 4 4 4 5 5 5 4 4 4 3 3 3 4 4 4 4 3 4 4 3 3 5 5 6 5 5 6 7 9 11 10 9 8 8
3 7 7 3 3 5 5 5 3 3 3 4 5 3 3 6 7 7 7 7 6 6 8 8 7 4 6 8 7 8 9 8 7 7 8 7 7 7 7 5 4 3 3 4 4 3 4 4 4 5 3 4 5 4 3 4 5 5 5 5 4 3 3 3 4 3 3 3 3 3 2 3 3 3 2 3 5 5 5 4 5 5 6 9 8 6 8
5 8 11 9 6 2 3 7 7 6 4 3 8 7 6 7 10 8 6 6 6 6 8 8 8 7 7 7 8 8 10 8 9 9 7 8 8 6 4 3 4 3 4 4 4 4 5 3 2 2 3 5 5 5 4 3 4 4 4 4 3 2 3 3 2 2 2 3 4 3 3 2 2 2 3 3 3 4 4 4 3 3 3 4 6 8 7
9 8 9 10 7 9 8 3 1 6 6 8 9 10 7 8 9 10 10 9 9 7 7 5 9 10 9 6 9 9 9 10 9 7 7 6 4 4 5 5 6 5 5 5 5 4 5 5 5 6 6 4 2 1 3 3 3 2 2 3 3 3 2 3 3 3 3 3 3 4 4 3 3 3 3 3 3 3 3 3 4 4 3 3 3 2 7
7 6 3 2 4 6 6 5 7 7 7 4 6 8 9 10 8 9 7 7 6 7 8 7 6 8 9 6 8 8 7 7 7 7 5 3 3 5 5 6 6 6 6 5 5 5 5 5 5 6 6 7 7 4 1 1 1 1 1 1 1 1 0 0 1 2 2 3 3 3 3 3 3 3 3 4 4 4 4 4 4 3 3 3 2 3 2
3 0 3 7 10 11 11 8 8 6 7 7 8 5 8 12 9 6 6 5 6 9 4 5 7 6 6 7 6 7 8 7 6 4 3 2 2 3 4 3 5 6 6 7 6 5 5 6 6 6 6 7 7 6 4 3 4 3 3 2 2 2 2 2 2 2 2 1 1 0 0 1 1 2 2 4 4 4 5 5 4 4 4 3 3 2 2
3 3 7 7 8 8 13 9 7 7 7 6 8 9 4 8 11 8 6 5 6 7 4 6 6 6 6 6 5 6 6 6 5 5 4 5 5 5 4 5 5 3 4 3 3 4 5 5 5 4 4 4 5 5 4 3 3 4 4 4 3 2 2 4 4 4 3 2 1 1 1 1 0 0 1 3 4 4 4 4 4 3 3 3 3 2 1
9 7 8 6 7 8 6 6 7 8 7 7 9 10 10 11 10 9 6 6 6 7 7 7 7 7 5 4 5 6 7 6 5 4 4 4 5 5 4 3 5 4 3 2 2 2 4 4 5 4 4 4 4 3 1 2 3 4 4 3 4 4 3 3 2 2 3 3 3 2 2 2 2 2 1 2 5 5 5 4 5 4 3 3 3 1 0
11 8 5 4 4 5 7 5 9 8 8 9 8 7 5 5 9 8 8 8 7 5 7 7 5 5 5 5 6 6 6 6 5 5 5 4 3 3 3 2 1 2 3 1 1 2 3 4 3 3 3 4 4 4 3 2 3 3 4 3 4 3 3 3 4 3 3 3 3 3 3 3 3 3 3 2 3 4 4 4 4 4 4 3 3 1 0
13 12 13 14 14 12 12 8 4 7 3 3 5 7 7 6 8 8 8 6 7 7 7 6 5 4 5 6 6 5 4 5 5 4 3 2 3 3 3 3 1 1 0 1 2 3 2 2 2 3 3 3 3 4 3 3 3 3 3 3 4 4 4 4 4 3 3 4 4 4 3 3 3 4 3 4 4 4 4 5 5 4 4 3 3 2 3
7 5 10 12 7 9 11 12 10 8 9 9 5 4 6 7 7 8 7 8 7 5 5 6 6 6 6 7 7 6 6 5 3 2 2 2 3 3 4 3 4 4 4 5 4 3 2 2 3 3 4 4 5 5 4 5 4 4 4 3 3 3 3 3 3 4 4 4 3 3 4 4 4 3 3 4 4 5 5 5 5 5 5 4 3 3 4
6 7 6 5 4 6 8 10 10 10 10 10 9 9 8 7 8 8 8 7 6 7 6 7 6 6 6 6 6 6 6 5 4 3 2 2 3 3 4 5 4 5 4 4 3 3 3 4 6 8 4 4 5 6 6 6 5 5 5 5 4 4 4 4 4 4 4 4 4 4 5 5 5 4 4 4 3 4 4 5 5 6 5 5 5 4 4
5 9 7 7 6 8 8 8 9 9 9 10 10 9 8 6 8 6 7 7 6 6 6 6 7 7 6 5 6 6 5 4 4 3 2 2 2 4 5 4 4 3 3 2 3 5 4 5 8 10 5 4 4 5 6 10 6 5 4 4 4 3 3 4 4 4 4 3 3 4 3 3 3 3 3 3 4 4 4 4 5 5 5 5 5 5 5
4 7 9 9 8 9 7 6 6 10 10 9 5 5 9 9 7 8 7 7 6 5 5 6 7 6 5 4 6 6 4 4 3 3 4 4 3 4 3 3 3 3 3 2 4 4 4 5 8 7 5 5 5 5 6 10 9 6 4 4 4 5 5 5 4 3 4 4 4 4 4 4 4 4 4 4 4 4 4 5 6 6 5 5 5 5 5
8 6 7 7 8 9 9 7 5 6 12 13 9 8 6 8 8 8 8 7 5 6 7 7 6 6 5 6 5 4 3 3 2 3 4 3 2 4 1 1 2 2 2 4 3 3 4 5 5 4 4 4 5 5 6 8 9 5 4 4 4 4 5 5 6 6 5 4 4 5 5 4 5 5 5 4 4 4 5 7 7 5 5 5 5 5 4
8 9 10 10 9 9 9 8 7 6 5 10 14 12 8 8 8 8 7 6 3 4 6 5 6 6 5 5 4 3 1 2 2 3 4 3 3 3 2 3 4 3 3 5 3 3 5 7 5 4 4 4 4 5 5 7 7 5 5 5 5 4 4 5 5 5 6 5 5 6 5 4 4 4 3 3 4 4 5 6 6 6 5 5 5 5 5
10 10 8 9 10 9 10 10 8 7 8 8 9 9 7 9 8 8 7 6 4 4 6 6 6 5 4 4 4 3 2 2 3 3 2 2 2 2 1 1 4 5 5 3 3 4 4 4 3 4 4 4 4 5 5 6 5 3 3 4 4 4 4 4 5 5 5 5 6 5 4 3 3 3 3 4 5 5 4 4 4 4 4 4 4 3 3
8 9 10 10 10 10 9 10 11 10 7 8 8 7 8 7 8 9 7 6 5 5 6 5 5 6 4 3 3 3 4 3 3 2 1 1 1 1 1 1 4 5 7 6 5 4 3 3 3 4 4 4 4 7 7 4 3 2 2 3 3 4 5 5 5 5 3 2 2 0 0 1 1 2 2 2 2 2 4 4 5 6 6 6 6 5 4
11 12 11 10 10 10 11 11 11 12 10 7 7 7 7 7 8 7 7 6 7 6 6 5 5 5 4 5 4 3 1 2 3 3 4 4 3 2 1 2 3 5 7 4 4 3 3 2 3 3 5 5 5 7 7 4 4 2 1 1 1 2 2 2 2 3 3 2 2 1 1 2 2 2 2 3 2 2 3 5 4 3 4 4 5 4 3
10 10 11 11 10 9 10 10 10 10 10 7 5 6 7 6 7 8 7 7 6 6 6 5 5 5 5 5 4 2 1 2 2 2 3 2 1 1 1 2 2 4 5 3 3 3 2 2 3 5 7 8 7 6 4 4 4 4 4 3 3 2 2 3 3 3 3 3 3 4 3 2 2 3 3 4 4 4 4 4 4 3 3 4 3 3 3
11 11 11 12 12 11 10 10 12 11 9 7 6 6 6 7 6 6 7 7 6 5 5 5 5 5 4 4 3 2 2 2 2 2 4 2 2 1 2 4 4 3 3 4 2 3 3 4 5 8 7 8 6 5 3 3 3 4 4 4 4 4 4 4 4 4 4 4 5 5 6 6 5 5 5 5 5 5 5 5 5 5 4 4 4 3 2
10 10 12 12 12 10 9 9 8 9 9 8 6 4 4 5 6 5 5 6 6 5 5 5 4 5 5 4 4 3 3 3 2 1 1 3 3 1 2 2 1 3 4 5 3 3 3 6 7 7 8 8 7 4 3 4 2 1 3 3 3 3 4 4 4 4 4 5 5 5 6 6 6 7 7 7 6 6 6 6 5 5 5 4 4 3 2
11 10 10 10 9 9 9 8 9 10 9 8 8 6 4 4 5 5 5 4 5 5 4 4 4 4 4 5 6 5 3 3 1 0 2 0 0 2 2 2 3 4 4 4 3 4 3 4 6 8 9 9 6 3 3 3 3 2 2 3 3 2 2 2 2 3 3 3 4 4 5 5 5 7 6 6 6 6 6 6 5 5 4 3 3 3 3
12 11 9 10 11 9 9 10 10 10 10 10 8 7 6 5 5 5 4 5 5 5 5 4 3 2 2 2 2 3 4 6 4 2 1 2 1 1 1 2 1 3 4 4 4 4 7 8 10 10 9 8 5 4 3 3 2 2 2 3 4 3 3 3 3 3 3 3 3 4 4 4 4 4 4 5 5 5 6 6 6 5 5 5 4 4 3
10 11 9 9 10 11 11 10 9 8 7 6 7 6 6 6 6 5 5 5 5 5 4 4 3 3 2 2 2 2 2 2 2 3 3 2 3 2 1 0 1 2 2 1 3 3 6 9 9 9 9 6 5 4 4 3 2 2 2 3 3 3 3 3 3 3 3 3 2 2 2 2 2 3 4 4 4 4 4 5 5 5 4 4 4 4 4
9 11 10 9 10 10 9 8 7 7 6 7 7 7 6 7 6 5 5 5 5 5 4 4 3 3 2 2 2 2 2 3 2 3 4 3 2 2 1 1 0 1 2 2 2 3 5 7 7 7 5 4 4 4 4 3 3 3 2 3 3 3 4 4 3 4 3 3 2 2 2 3 3 3 4 3 3 3 3 3 3 5 7 5 4 3 3
9 10 10 10 10 9 9 10 9 8 8 7 8 7 7 7 6 6 5 6 5 5 4 3 1 2 2 2 1 2 3 3 3 4 3 2 1 1 1 1 0 1 1 1 2 3 3 3 4 4 4 4 4 3 3 3 3 3 3 3 3 3 3 3 3 3 2 2 3 3 3 3 3 4 4 3 4 3 3 3 3 3 3 3 3 3 3
9 8 8 7 7 6 5 5 6 7 7 7 7 7 6 6 6 6 5 6 6 6 6 5 3 4 3 3 2 2 2 3 3 2 2 2 2 2 2 2 1 1 1 1 2 2 2 3 3 3 3 4 3 3 3 3 2 3 3 3 2 2 2 2 2 3 2 2 2 2 3 3 3 4 3 3 3 3 3 3 3 3 2 2 2 2 2
Wind_Direction
359 139 339 360 26 82 118 86 338 43 32 62 67 7 300 141 155 243 19 28 9 347 358 335 18 40 48 33 32 42 52 52 48 41 39 48 47 33 32 28 43 48 54 66 65 97 150 143 122 11 345 327 188 184 187 179 172 182 172 164 163 168 174 181 177 160 144 132 118 109 102 98 93 82 56 354 265 233 214 217 217 215 217 216 210 210 218
75 271 303 314 221 137 64 46 16 345 26 92 102 103 2 44 150 243 60 63 25 14 348 344 355 13 52 47 38 44 43 48 59 52 50 52 50 50 49 49 41 54 85 119 189 198 126 113 150 165 164 185 227 209 196 186 181 179 160 176 169 169 178 183 173 160 148 144 147 142 144 144 150 158 132 92 24 294 256 230 223 218 218 212 211 215 214
230 289 302 343 303 357 89 28 27 352 218 101 94 101 12 10 316 311 285 272 64 73 344 340 354 346 22 59 55 33 16 43 54 62 56 49 51 53 63 81 222 193 172 182 191 190 177 176 183 194 195 192 180 199 219 229 209 188 177 180 179 178 181 168 160 155 153 157 158 164 168 167 172 171 159 148 131 118 235 273 262 248 228 219 216 216 220
289 293 314 292 12 52 88 31 2 13 286 330 194 106 154 196 246 305 310 279 308 5 340 346 4 14 35 39 33 27 5 10 31 61 72 67 59 63 84 245 243 179 208 199 161 157 189 221 207 195 185 185 187 202 195 193 195 150 105 121 219 177 137 143 153 156 157 155 157 156 147 144 149 170 172 164 162 152 157 214 244 248 254 253 253 249 242
263 267 125 183 330 357 307 299 252 271 328 36 150 121 79 169 180 286 245 282 335 295 319 5 5 19 31 26 11 357 7 18 34 56 67 70 77 84 118 234 260 279 260 113 135 159 186 217 220 216 196 186 191 186 178 147 102 97 87 114 114 96 171 154 151 142 141 143 146 137 130 144 162 177 183 180 191 198 187 144 105 24 250 192 239 249 265
234 333 4 45 41 298 239 244 223 201 191 191 238 222 205 175 183 222 201 266 298 299 2 14 20 18 27 10 357 5 5 32 57 69 73 73 70 66 62 14 346 332 304 234 168 165 189 218 230 218 204 205 200 188 162 139 132 141 147 146 144 160 183 184 155 148 149 151 149 145 147 154 160 164 173 189 175 104 87 86 94 129 192 137 152 156 181
175 47 58 49 268 235 243 290 275 141 123 144 191 266 218 226 237 318 291 283 291 279 20 17 72 59 42 39 31 18 11 17 58 68 75 79 82 73 59 36 16 358 319 299 126 106 150 193 197 194 178 164 152 148 142 132 134 130 129 134 141 148 187 173 143 147 153 153 151 166 167 150 158 185 174 73 106 137 131 137 146 168 188 173 172 168 167
77 65 70 131 242 243 283 283 232 111 101 110 55 296 253 221 202 179 234 249 278 159 323 334 315 1 18 40 37 21 14 16 18 48 62 68 65 66 61 64 58 50 42 38 54 30 41 91 114 146 152 150 144 135 120 124 123 121 119 117 107 109 127 186 166 153 143 140 147 158 164 143 128 87 38 323 278 225 141 135 156 174 187 188 67 48 37
164 172 152 223 303 323 221 227 219 180 211 186 180 266 280 207 174 155 183 263 225 162 342 321 343 347 345 36 25 17 19 13 22 37 43 42 58 72 70 70 73 63 61 52 45 50 37 26 28 53 58 125 133 128 126 126 122 123 119 112 110 89 45 349 13 96 113 120 126 136 127 119 136 141 141 105 16 316 102 142 160 199 115 61 57 48 55
117 134 36 353 24 281 270 239 275 275 225 123 145 120 288 269 186 163 138 196 240 237 346 348 329 357 36 33 360 359 7 21 30 37 39 34 28 30 32 41 43 42 43 50 45 43 42 34 27 30 67 114 115 112 112 110 109 112 113 112 105 93 80 45 30 41 89 109 125 154 162 178 184 187 140 126 146 209 170 172 202 231 93 88 68 66 69
72 56 123 202 166 242 214 229 238 264 279 131 133 55 296 277 161 165 148 181 156 205 310 324 355 73 73 55 328 342 13 34 45 54 45 47 47 47 39 32 40 44 47 53 51 46 38 29 15 23 36 27 68 84 92 98 98 97 94 97 101 111 111 91 76 65 42 46 85 74 82 105 135 148 144 149 136 169 184 199 231 209 135 120 100 73 78
173 135 120 235 199 177 6 244 273 277 232 116 64 24 288 258 183 161 155 171 179 214 230 161 47 107 136 158 266 329 22 41 45 57 58 50 46 46 44 43 43 44 40 50 47 43 39 29 17 22 37 50 46 52 66 84 84 77 84 84 80 83 77 68 65 67 73 66 55 62 62 54 55 56 65 80 90 160 204 205 213 214 169 138 96 76 86
160 137 216 321 304 259 250 237 264 290 212 83 96 191 241 157 136 142 135 158 188 151 147 141 118 249 188 164 171 62 35 49 48 45 56 70 67 64 54 48 48 45 42 51 50 46 42 34 29 20 29 52 54 46 39 42 47 52 77 86 81 73 70 63 55 57 58 64 64 57 65 75 78 66 57 117 163 181 188 187 194 187 122 83 91 95 94
156 192 142 221 238 239 212 276 233 274 87 81 204 238 178 126 147 119 129 147 176 125 129 124 123 159 179 132 85 71 63 69 61 48 57 61 57 55 61 60 55 50 42 46 48 44 33 41 43 41 42 45 43 46 41 27 16 26 62 78 83 83 81 82 78 72 76 76 69 63 54 59 72 75 67 66 41 340 336 210 143 91 94 99 96 97 80
72 41 75 11 181 227 170 85 32 79 137 227 210 137 35 125 131 119 93 105 161 136 106 136 147 120 88 94 93 76 66 78 71 62 56 58 57 55 58 53 47 59 52 42 43 41 36 32 29 40 56 51 43 37 44 28 10 30 46 60 71 73 77 75 80 79 66 64 62 60 64 57 56 64 57 67 64 48 50 52 61 67 70 86 97 91 80
145 126 149 189 212 222 250 160 181 232 202 209 177 133 77 68 116 110 120 94 139 128 123 130 102 112 115 77 92 80 74 70 57 53 55 55 59 59 59 70 70 68 65 50 43 34 34 36 35 28 42 55 49 43 26 11 30 43 51 61 66 65 66 68 68 67 71 68 66 63 69 73 61 51 50 56 50 51 59 63 60 61 59 73 86 88 81
127 195 214 243 228 213 242 176 214 229 272 227 194 140 139 121 66 121 116 127 126 142 134 118 123 91 56 116 119 114 120 93 63 66 64 71 76 69 62 58 68 72 75 68 55 41 32 31 32 39 45 65 64 56 1 6 19 25 42 55 68 66 60 70 78 81 74 69 67 62 57 71 75 55 49 45 58 40 53 64 68 69 64 61 68 76 79
241 243 200 248 326 346 331 223 222 207 343 33 110 121 96 59 132 145 137 143 137 142 136 112 60 85 129 98 93 99 104 96 86 85 80 75 80 79 77 68 64 78 78 71 69 60 36 31 40 39 36 49 58 19 347 16 66 60 46 58 63 74 74 62 58 70 76 67 60 50 45 36 44 39 45 56 63 50 52 65 78 85 78 79 75 79 82
75 196 322 98 172 290 335 15 51 84 96 44 64 86 90 123 118 106 108 130 133 130 105 106 115 92 103 97 87 95 95 91 91 93 95 80 80 96 94 96 95 84 85 79 71 66 56 21 39 36 43 38 45 41 57 45 59 75 83 87 84 71 70 68 58 58 65 60 59 49 35 36 41 32 27 31 53 58 48 62 76 88 92 96 98 104 108
110 220 216 254 270 247 264 251 131 97 70 57 47 83 114 118 114 116 133 123 108 109 104 121 108 94 86 113 112 97 94 98 93 94 99 99 76 47 62 61 80 82 81 85 76 67 55 27 43 47 40 29 12 18 25 34 60 68 67 75 86 90 87 87 79 71 74 68 68 63 42 40 34 28 26 26 46 45 37 29 62 68 69 64 62 83 85
299 283 285 247 73 32 2 336 241 224 152 109 75 83 104 111 110 102 69 54 121 113 137 131 109 95 62 85 116 115 111 93 89 89 87 82 90 82 63 46 53 67 80 82 81 75 49 17 40 49 43 30 19 23 13 8 52 75 72 76 82 75 68 71 74 73 63 64 69 73 69 59 53 41 17 7 39 65 48 32 340 55 70 67 59 42 55
274 193 194 160 113 227 264 237 181 182 213 115 104 92 87 108 117 114 95 66 63 84 108 130 116 111 102 87 111 100 87 106 109 96 84 81 80 70 67 70 66 64 55 66 64 56 29 18 42 51 41 28 23 30 43 33 48 83 89 94 86 69 66 76 78 79 76 73 74 80 86 87 89 67 52 50 20 31 47 31 43 39 60 86 78 101 87
230 235 202 176 153 147 195 178 186 181 170 121 110 116 111 84 104 132 123 107 71 66 46 50 106 108 106 96 87 83 72 66 85 95 86 79 67 47 46 70 59 64 58 67 78 63 24 14 39 40 34 16 15 14 27 39 61 73 79 81 69 68 75 81 91 94 96 91 78 84 94 105 95 92 76 51 43 41 43 48 45 57 64 59 52 41 56
238 192 170 170 153 151 187 185 159 164 173 119 104 91 88 104 108 100 92 116 127 105 80 57 67 107 95 92 99 96 70 53 67 69 63 63 60 60 50 64 61 62 51 53 68 55 10 39 47 36 39 21 6 4 16 35 54 61 55 71 71 58 65 69 81 88 87 97 99 97 84 86 102 110 102 87 47 29 31 34 40 49 54 51 49 51 40
3 205 151 154 164 124 112 135 140 152 153 134 123 135 132 110 80 99 103 89 90 114 105 84 54 73 98 84 89 93 91 71 74 75 69 58 53 50 41 40 34 33 21 4 353 357 7 20 28 19 23 7 1 2 10 25 41 54 51 68 77 67 65 78 88 100 96 100 100 100 113 115 108 114 120 120 106 83 33 39 61 59 48 40 38 41 39
138 111 100 92 85 105 121 83 69 121 149 134 108 101 111 114 116 94 94 110 107 102 103 102 89 61 92 96 90 93 82 79 87 81 69 67 58 49 37 13 342 350 20 30 39 42 26 5 351 358 360 355 354 346 357 32 58 74 69 58 61 57 61 83 92 80 91 97 108 110 95 97 116 115 109 112 128 127 116 98 58 51 63 53 42 47 53
118 136 106 79 87 91 212 154 177 185 148 101 116 118 111 102 98 98 92 81 82 86 100 106 105 97 82 88 88 85 96 88 69 65 69 63 57 51 50 53 49 33 24 27 14 360 1 22 44 23 3 347 340 347 343 17 50 54 72 90 61 53 113 119 80 110 123 127 138 135 144 163 149 138 124 139 134 131 132 123 119 92 49 24 45 51 51
159 181 152 144 180 192 200 243 106 124 123 125 123 115 123 114 105 99 94 90 81 76 68 77 102 96 84 77 92 82 73 78 82 76 70 63 59 56 52 53 54 58 60 50 18 355 6 8 3 354 352 346 324 356 3 337 71 61 50 44 62 71 36 108 121 135 141 149 148 163 178 173 178 168 159 167 160 141 130 127 126 126 107 56 34 49 74
183 191 349 41 144 129 98 98 102 104 96 80 109 123 117 100 96 98 94 98 112 97 88 75 75 92 105 99 94 94 93 92 90 87 95 84 58 52 41 50 57 59 62 63 49 28 30 27 15 12 352 337 337 339 85 73 310 157 163 141 92 47 55 45 114 145 141 140 142 158 159 155 139 177 183 176 165 148 140 132 134 122 113 93 80 55 23
168 33 79 110 125 128 121 127 132 128 127 133 119 109 121 117 104 102 110 107 106 101 118 112 95 94 109 104 105 116 111 112 118 124 109 91 82 78 81 86 68 43 38 33 21 27 45 46 41 36 359 338 333 339 341 346 334 335 298 233 195 180 182 193 173 147 149 132 286 221 101 100 134 126 194 187 177 161 156 153 157 143 138 157 129 99 83
85 96 117 122 125 136 141 146 138 140 136 135 125 112 89 111 121 122 120 113 102 108 106 102 103 96 86 100 101 98 104 100 90 80 65 53 40 28 41 74 80 69 60 14 358 28 43 42 55 41 331 322 329 334 347 348 333 336 327 322 311 290 235 189 179 187 183 192 202 177 313 352 285 248 166 183 186 172 164 169 154 151 151 131 104 121 80
100 94 106 121 134 127 115 124 133 144 150 141 128 136 147 138 140 143 145 136 141 134 127 114 113 115 118 106 94 89 87 83 73 65 58 52 43 31 14 42 110 128 143 153 92 70 64 63 35 345 327 334 349 347 299 290 313 307 297 303 304 307 318 289 239 188 190 204 192 186 186 195 235 227 262 193 184 177 175 168 167 167 160 150 133 112 314
111 98 90 105 95 124 138 165 146 153 158 163 162 148 144 138 134 139 142 138 124 122 119 122 126 126 126 118 107 104 98 89 75 61 46 35 17 21 15 44 12 52 107 55 38 40 58 55 346 311 323 329 351 5 19 347 277 280 284 273 276 288 290 279 261 257 256 238 203 190 185 201 199 189 208 195 173 182 177 174 164 164 158 137 119 117 63
156 172 178 175 162 168 167 181 171 134 105 78 125 137 133 136 132 131 130 125 120 119 126 130 126 121 109 97 96 98 93 75 60 44 12 4 346 336 353 24 77 32 332 343 3 43 31 358 313 323 310 330 343 352 358 0 344 301 275 275 277 281 277 277 269 253 251 261 240 242 218 202 192 191 192 177 168 174 176 170 168 157 138 124 115 122 102
165 156 164 174 173 162 154 149 156 151 141 131 122 122 129 129 128 132 136 128 128 133 127 113 109 100 90 86 82 83 85 106 125 92 30 359 346 339 329 10 30 31 22 23 25 24 10 357 330 320 347 351 350 348 347 337 326 319 312 298 287 261 266 271 265 244 245 253 249 229 245 243 234 224 197 172 167 180 173 168 161 149 146 137 131 113 94
112 104 106 110 119 128 141 147 152 152 148 143 144 140 138 140 133 129 124 118 121 119 115 109 106 97 91 97 101 102 106 113 118 117 82 20 346 353 37 46 36 38 12 349 7 29 9 355 10 33 30 349 349 342 341 330 316 311 301 308 296 301 290 279 267 264 261 242 249 243 230 238 232 208 187 172 175 172 168 159 157 154 148 141 138 125 121
135 136 140 134 130 133 138 143 143 138 135 136 137 130 122 118 114 107 106 108 108 113 118 113 95 95 106 118 121 112 103 108 107 98 78 24 40 67 72 59 46 44 26 26 347 343 359 355 359 9 18 11 360 340 329 340 332 327 329 318 307 295 294 295 291 281 277 275 274 270 275 292 296 234 199 170 182 179 169 158 154 148 146 146 145 144 141
119 134 141 140 137 129 129 125 126 119 110 97 80 103 125 123 121 116 113 114 115 114 105 99 109 121 117 98 76 77 71 57 66 68 62 50 55 80 46 52 24 20 27 5 328 333 336 346 7 8 7 7 356 335 328 332 338 343 332 323 311 303 299 293 291 282 277 271 271 269 263 245 229 222 205 188 183 175 166 161 161 159 152 150 144 146 146
96 85 89 106 113 116 114 103 105 122 128 123 120 112 113 117 120 115 110 111 121 120 110 115 117 100 93 90 84 66 49 22 33 89 84 60 69 93 88 329 312 316 294 289 311 298 335 3 14 13 358 343 329 320 327 332 339 335 321 312 313 304 301 294 296 292 291 279 261 247 240 239 220 213 194 188 173 170 168 168 162 154 144 147 151 150 144
130 133 136 128 122 124 116 114 113 107 108 129 133 136 141 123 117 113 113 112 123 121 114 114 101 100 96 95 93 85 22 29 102 94 86 74 59 46 3 7 27 344 310 339 351 321 356 9 12 350 330 322 319 316 318 322 327 322 320 315 311 305 301 299 295 296 294 293 284 278 250 226 214 183 172 179 182 173 154 159 156 152 150 143 142 141 144
140 135 134 127 128 130 128 123 117 117 119 114 113 122 128 125 124 114 118 124 122 101 107 109 106 107 123 134 138 133 111 88 89 101 131 98 67 75 65 303 331 341 329 332 17 2 7 359 350 338 312 323 304 323 312 319 324 295 303 309 314 313 310 305 299 294 288 292 292 286 256 219 172 169 168 174 178 171 163 146 138 133 133 127 108 93 90
139 130 125 124 124 125 122 122 121 116 115 122 125 126 131 135 128 130 136 126 113 101 100 101 121 134 144 119 112 92 66 33 45 44 25 132 167 157 18 284 332 327 329 4 24 7 359 356 335 334 314 314 318 332 342 350 336 338 320 314 313 314 314 316 312 307 300 264 226 319 354 163 150 131 127 128 127 114 114 110 112 119 117 123 136 139 133
139 135 132 129 127 129 132 133 131 130 130 131 134 134 134 122 115 117 119 119 120 114 104 104 109 110 110 113 109 97 64 355 37 39 54 50 49 66 79 301 329 326 352 36 21 20 1 345 331 293 354 10 359 3 4 352 335 326 206 190 264 298 313 329 352 360 9 19 347 325 119 108 94 108 119 102 76 81 100 109 120 115 118 126 127 126 129
138 132 132 131 131 131 127 123 123 124 127 141 146 139 131 127 132 133 132 131 130 132 129 129 124 127 131 128 112 105 25 19 41 46 87 75 34 322 251 279 316 335 8 35 38 35 14 340 323 6 12 12 13 16 12 358 360 3 7 11 35 41 53 54 45 53 60 57 48 31 31 65 85 93 86 85 94 80 63 60 63 65 76 71 71 83 99
141 138 136 134 134 131 132 134 139 142 140 135 133 130 129 131 134 136 136 136 136 140 135 135 137 140 137 130 128 146 147 130 144 131 105 95 83 323 314 5 19 5 19 50 47 25 343 354 13 6 358 358 360 11 9 350 2 21 27 38 54 62 71 76 84 79 74 70 70 75 78 77 73 68 60 59 62 68 79 76 70 63 65 74 79 75 86
129 128 129 128 132 136 138 130 122 118 120 122 119 125 138 143 143 142 137 134 137 145 152 150 147 151 152 133 117 116 119 116 117 141 178 151 157 211 276 48 38 48 47 46 35 28 354 7 2 349 348 349 7 8 343 338 332 65 97 83 80 76 72 76 82 87 87 95 99 99 93 92 91 94 101 108 106 102 88 87 81 77 80 82 85 94 90
130 129 131 127 123 123 122 120 123 122 123 127 138 158 168 153 138 136 134 132 128 126 123 136 139 154 157 148 145 134 128 99 29 231 161 169 40 83 48 46 37 46 44 39 21 356 348 357 353 354 355 1 8 356 339 328 336 336 102 118 107 99 84 70 53 56 63 78 92 93 93 96 106 117 113 105 105 109 116 114 113 109 104 106 118 123 118
136 134 134 133 130 128 124 128 132 141 155 163 162 153 151 140 126 118 113 110 111 115 117 114 120 138 154 172 174 165 152 141 131 280 234 124 114 40 32 46 311 32 38 21 12 348 358 14 10 6 8 12 12 358 349 355 3 38 92 99 95 82 85 80 78 80 82 84 88 90 96 92 98 102 112 122 127 127 128 132 129 127 132 132 131 129 147
133 131 129 127 130 137 140 146 149 154 162 153 139 142 141 132 122 120 120 119 122 125 129 132 134 129 122 139 145 140 179 176 140 180 216 144 115 133 204 251 27 52 49 49 360 326 358 17 16 13 18 20 14 7 8 0 26 63 89 106 111 107 105 108 118 111 103 115 119 92 84 86 90 102 109 106 107 110 117 122 136 148 160 157 160 168 176
126 125 130 139 144 151 153 150 159 160 153 147 145 144 141 129 127 150 149 148 150 143 136 151 155 138 109 63 40 66 115 132 112 105 108 124 154 212 216 181 274 66 75 115 334 355 350 3 2 4 14 14 15 20 22 31 21 31 40 66 81 82 97 107 108 117 124 123 126 124 109 104 115 113 105 104 123 136 140 143 150 168 173 166 168 172 168
144 148 156 159 159 160 163 161 159 155 154 153 149 149 150 156 158 158 160 156 143 143 154 165 163 229 220 203 45 78 99 116 122 131 125 163 195 186 165 168 98 90 76 47 5 338 337 337 332 356 4 6 6 43 74 58 49 74 90 100 112 133 144 144 155 131 118 119 123 119 122 126 119 116 132 145 145 136 135 137 141 145 147 161 170 177 183
145 139 133 132 134 133 128 121 133 143 144 146 148 154 158 152 142 148 162 169 160 161 158 147 195 249 228 220 170 163 157 153 140 132 137 137 131 83 49 83 60 23 58 353 314 308 313 327 343 0 14 15 356 2 54 85 101 130 132 136 142 119 78 74 72 73 80 96 99 103 109 111 123 135 140 140 133 137 143 150 147 141 147 154 166 190 200